GW2765 Weather Reports


Display with metric or nautical units.
time (UTC)temp
F
wind
direction
speed
MPH
gust
MPH
rain 1hr
in
rain 24hr
in
rain mn
in
humidity
%
barometer
mb
20260905080533 77 172 0.0 1.0 0.00 0.00 0.00 39 1010.8
20260905080300 78 164 0.0 1.0 0.00 0.00 0.00 39 1010.8
20260905075533 78 164 0.0 1.0 0.00 0.00 0.00 38 1010.8
20260905075030 78 157 0.0 0.0 0.00 0.00 0.00 38 1010.8
20260905074531 78 172 0.0 2.0 0.00 0.00 0.00 37 1010.7
20260905074030 78 172 0.0 2.0 0.00 0.00 0.00 37 1010.9
20260905073530 79 193 0.0 2.0 0.00 0.00 0.00 37 1010.8
20260905073030 78 129 0.0 1.0 0.00 0.00 0.00 37 1010.8
20260905072529 79 129 0.0 1.0 0.00 0.00 0.00 36 1010.7
20260905072026 79 96 0.0 1.0 0.00 0.00 0.00 35 1010.7
20260905071520 79 237 0.0 0.0 0.00 0.00 0.00 35 1010.6
20260905071015 79 237 0.0 1.0 0.00 0.00 0.00 35 1010.6
20260905070507 80 237 0.0 1.0 0.00 0.00 0.00 35 1010.6
20260905070241 80 237 0.0 1.0 0.00 0.00 0.00 35 1010.7
20260905065508 80 236 0.0 1.0 0.00 0.00 0.00 37 1010.7
20260905065147 80 236 0.0 2.0 0.00 0.00 0.00 34 1010.7
20260905065123 80 237 0.0 2.0 0.00 0.00 0.00 34 1010.5
20260905064238 80 163 0.0 1.0 0.00 0.00 0.00 35 1010.4
20260905063733 81 163 0.0 1.0 0.00 0.00 0.00 34 1010.5
20260905063004 81 116 0.0 1.0 0.00 0.00 0.00 34 1010.4
20260905062501 81 159 0.0 1.0 0.00 0.00 0.00 34 1010.3
20260905062003 82 160 0.0 1.0 0.00 0.00 0.00 34 1010.3
20260905061503 82 105 0.0 1.0 0.00 0.00 0.00 32 1010.3
20260905061002 82 106 0.0 1.0 0.00 0.00 0.00 32 1010.2
20260905060503 82 115 0.0 1.0 0.00 0.00 0.00 30 1010.3
20260905060232 82 132 0.0 1.0 0.00 0.00 0.00 31 1010.3
20260905055502 82 133 0.0 1.0 0.00 0.00 0.00 30 1010.2
20260905055002 82 174 0.0 0.0 0.00 0.00 0.00 30 1010.2
20260905054501 82 174 0.0 1.0 0.00 0.00 0.00 30 1010.0
20260905054001 82 175 0.0 1.0 0.00 0.00 0.00 30 1010.1
20260905052957 83 311 0.0 1.0 0.00 0.00 0.00 29 1010.0
20260905052450 83 309 0.0 1.0 0.00 0.00 0.00 29 1010.0
20260905051438 83 10 0.0 1.0 0.00 0.00 0.00 29 1010.1
20260905050931 83 317 0.0 1.0 0.00 0.00 0.00 29 1010.0
20260905050434 83 316 0.0 1.0 0.00 0.00 0.00 29 1010.0
20260905045930 83 7 0.0 1.0 0.00 0.00 0.00 29 1009.9
20260905045430 84 7 0.0 1.0 0.00 0.00 0.00 29 1009.8
20260905044930 84 67 0.0 0.0 0.00 0.00 0.00 29 1009.9
20260905044431 84 297 0.0 1.0 0.00 0.00 0.00 29 1009.9
20260905044200 85 297 0.0 2.0 0.00 0.00 0.00 29 1009.8
20260905043429 85 269 0.0 2.0 0.00 0.00 0.00 28 1009.8
20260905042929 86 1 0.0 1.0 0.00 0.00 0.00 28 1009.7
20260905042655 86 67 0.0 2.0 0.00 0.00 0.00 28 1009.6
20260905041929 86 62 0.0 2.0 0.00 0.00 0.00 27 1009.5
20260905041430 87 77 0.0 2.0 0.00 0.00 0.00 27 1009.5
20260905040928 87 8 0.0 2.0 0.00 0.00 0.00 27 1009.5
20260905040431 87 44 0.0 2.0 0.00 0.00 0.00 27 1009.4
20260905035931 87 353 1.0 3.0 0.00 0.00 0.00 27 1009.3
20260905035430 88 42 1.0 4.0 0.00 0.00 0.00 26 1009.3
20260905034929 89 33 1.0 4.0 0.00 0.00 0.00 26 1009.2
20260905034429 89 356 1.0 5.0 0.00 0.00 0.00 24 1009.1
20260905033926 90 359 1.0 5.0 0.00 0.00 0.00 23 1009.0
20260905033420 91 49 1.0 8.0 0.00 0.00 0.00 22 1009.0
20260905032914 92 2 4.0 12.0 0.00 0.00 0.00 22 1008.9
20260905032640 92 248 6.0 13.0 0.00 0.00 0.00 22 1008.9
20260905031902 92 254 6.0 14.0 0.00 0.00 0.00 23 1008.7
20260905031629 92 271 7.0 14.0 0.00 0.00 0.00 24 1008.6
20260905030902 92 265 7.0 14.0 0.00 0.00 0.00 24 1008.7
20260905030402 92 191 7.0 14.0 0.00 0.00 0.00 24 1008.6
20260905025902 93 250 9.0 16.0 0.00 0.00 0.00 24 1008.4
20260905025402 93 214 9.0 16.0 0.00 0.00 0.00 24 1008.2
20260905024901 93 231 8.0 15.0 0.00 0.00 0.00 23 1008.1
20260905024401 94 240 6.0 12.0 0.00 0.00 0.00 23 1008.1
20260905023901 94 263 5.0 12.0 0.00 0.00 0.00 23 1008.1
20260905023401 94 254 4.0 14.0 0.00 0.00 0.00 22 1008.2
20260905022904 94 260 3.0 14.0 0.00 0.00 0.00 22 1008.1
20260905022628 93 212 2.0 6.0 0.00 0.00 0.00 22 1008.1
20260905021904 93 32 2.0 5.0 0.00 0.00 0.00 22 1008.2
20260905021403 93 39 3.0 9.0 0.00 0.00 0.00 22 1008.0
20260905020902 93 338 4.0 10.0 0.00 0.00 0.00 22 1007.9
20260905020400 94 318 4.0 12.0 0.00 0.00 0.00 21 1008.0
20260905015902 94 317 3.0 12.0 0.00 0.00 0.00 21 1007.8
20260905015402 94 337 2.0 9.0 0.00 0.00 0.00 21 1007.9
20260905014856 95 352 2.0 6.0 0.00 0.00 0.00 21 1007.9
20260905014350 95 43 3.0 6.0 0.00 0.00 0.00 21 1008.0
20260905013850 96 344 2.0 6.0 0.00 0.00 0.00 21 1007.9
20260905013348 96 339 2.0 7.0 0.00 0.00 0.00 21 1007.8
20260905013110 97 348 1.0 7.0 0.00 0.00 0.00 21 1007.9
20260905012614 98 346 0.0 4.0 0.00 0.00 0.00 20 1007.9
20260905011846 98 58 0.0 2.0 0.00 0.00 0.00 19 1007.7
20260905011347 98 52 0.0 1.0 0.00 0.00 0.00 19 1007.8
20260905010846 99 21 0.0 1.0 0.00 0.00 0.00 18 1008.0
20260905010344 99 18 0.0 3.0 0.00 0.00 0.00 18 1008.0
20260905005843 99 15 1.0 3.0 0.00 0.00 0.00 19 1008.0
20260905005342 99 10 1.0 3.0 0.00 0.00 0.00 20 1007.9
20260905004842 99 44 1.0 3.0 0.00 0.00 0.00 19 1007.9
20260905004613 99 349 1.0 6.0 0.00 0.00 0.00 18 1007.9
20260905004108 99 12 2.0 6.0 0.00 0.00 0.00 18 1007.8
20260905003608 99 326 1.0 6.0 0.00 0.00 0.00 18 1007.8
20260905003108 99 32 1.0 4.0 0.00 0.00 0.00 19 1007.9
20260905002340 99 172 1.0 4.0 0.00 0.00 0.00 18 1007.9
20260905001839 99 337 1.0 4.0 0.00 0.00 0.00 18 1007.9
20260905001606 99 62 1.0 4.0 0.00 0.00 0.00 18 1008.0
20260905000835 99 122 2.0 5.0 0.00 0.00 0.00 18 1008.0
20260905000334 99 55 2.0 5.0 0.00 0.00 0.00 18 1008.0
20260904235834 99 73 2.0 6.0 0.00 0.00 0.00 19 1008.0
20260904235333 99 103 2.0 6.0 0.00 0.00 0.00 19 1008.0
20260904234832 99 65 2.0 5.0 0.00 0.00 0.00 19 1008.0
20260904234332 99 114 1.0 4.0 0.00 0.00 0.00 18 1008.1
20260904233830 99 126 1.0 3.0 0.00 0.00 0.00 19 1008.1
20260904233330 98 124 1.0 5.0 0.00 0.00 0.00 18 1008.1
20260904232830 99 48 1.0 5.0 0.00 0.00 0.00 19 1008.1
20260904232331 98 56 1.0 4.0 0.00 0.00 0.00 20 1008.0
20260904231830 98 41 2.0 5.0 0.00 0.00 0.00 19 1008.1
20260904231330 99 89 2.0 5.0 0.00 0.00 0.00 19 1008.2
20260904230829 99 41 2.0 6.0 0.00 0.00 0.00 19 1008.2
20260904230329 99 38 2.0 6.0 0.00 0.00 0.00 19 1008.4
20260904225831 99 53 2.0 7.0 0.00 0.00 0.00 19 1008.4
20260904225330 99 127 2.0 7.0 0.00 0.00 0.00 19 1008.5
20260904224829 99 113 1.0 5.0 0.00 0.00 0.00 19 1008.5
20260904224329 99 307 2.0 6.0 0.00 0.00 0.00 20 1008.4
20260904223829 98 89 2.0 6.0 0.00 0.00 0.00 19 1008.4
20260904223330 98 347 2.0 5.0 0.00 0.00 0.00 18 1008.6
20260904222831 98 357 2.0 5.0 0.00 0.00 0.00 19 1008.6
20260904222329 98 8 1.0 6.0 0.00 0.00 0.00 18 1008.7
20260904221830 99 316 1.0 6.0 0.00 0.00 0.00 18 1008.7
20260904221329 98 86 1.0 5.0 0.00 0.00 0.00 17 1008.8
20260904220829 98 8 2.0 6.0 0.00 0.00 0.00 20 1008.8
20260904220330 98 61 2.0 6.0 0.00 0.00 0.00 18 1008.8
20260904215829 97 359 1.0 3.0 0.00 0.00 0.00 18 1008.9
20260904215557 97 304 1.0 5.0 0.00 0.00 0.00 18 1008.9
20260904214830 96 316 1.0 5.0 0.00 0.00 0.00 18 1008.9
20260904214554 97 18 2.0 6.0 0.00 0.00 0.00 18 1009.2
20260904213829 97 348 2.0 6.0 0.00 0.00 0.00 19 1009.3
20260904213329 97 30 2.0 6.0 0.00 0.00 0.00 19 1009.2
20260904213054 96 319 2.0 6.0 0.00 0.00 0.00 19 1009.4
20260904212330 96 330 2.0 6.0 0.00 0.00 0.00 18 1009.4
20260904211831 97 328 2.0 6.0 0.00 0.00 0.00 17 1009.3
20260904211601 97 330 1.0 6.0 0.00 0.00 0.00 17 1009.3
20260904210829 97 81 1.0 4.0 0.00 0.00 0.00 17 1009.3
20260904210330 97 217 1.0 5.0 0.00 0.00 0.00 17 1009.3
20260904205830 96 316 2.0 5.0 0.00 0.00 0.00 20 1009.4
20260904205329 97 349 2.0 6.0 0.00 0.00 0.00 19 1009.5
20260904204831 97 51 1.0 6.0 0.00 0.00 0.00 19 1009.6
20260904204330 97 224 1.0 4.0 0.00 0.00 0.00 18 1009.7
20260904203829 96 314 1.0 4.0 0.00 0.00 0.00 19 1009.7
20260904203329 96 44 2.0 7.0 0.00 0.00 0.00 19 1009.8
20260904202828 96 34 1.0 7.0 0.00 0.00 0.00 18 1009.7
20260904202329 96 176 1.0 4.0 0.00 0.00 0.00 18 1009.7
20260904202056 96 20 1.0 5.0 0.00 0.00 0.00 19 1009.7
20260904201329 95 82 2.0 5.0 0.00 0.00 0.00 18 1009.7
20260904201058 96 6 1.0 4.0 0.00 0.00 0.00 20 1009.7
20260904200327 96 113 1.0 4.0 0.00 0.00 0.00 19 1009.9
20260904195822 95 63 1.0 4.0 0.00 0.00 0.00 18 1009.9
20260904195316 95 338 1.0 6.0 0.00 0.00 0.00 19 1010.1
20260904194816 95 122 1.0 6.0 0.00 0.00 0.00 19 1010.1
20260904194315 94 311 1.0 7.0 0.00 0.00 0.00 18 1010.2
20260904193812 94 339 1.0 7.0 0.00 0.00 0.00 18 1010.3
20260904193310 94 80 1.0 5.0 0.00 0.00 0.00 20 1010.3
20260904192808 94 60 1.0 5.0 0.00 0.00 0.00 20 1010.5
20260904192308 93 52 2.0 6.0 0.00 0.00 0.00 19 1010.6
20260904191808 93 18 2.0 6.0 0.00 0.00 0.00 20 1010.7
20260904191530 93 94 1.0 6.0 0.00 0.00 0.00 22 1010.8
20260904190802 93 221 2.0 6.0 0.00 0.00 0.00 21 1010.9
20260904190524 94 17 1.0 5.0 0.00 0.00 0.00 21 1011.0
20260904185803 94 99 1.0 6.0 0.00 0.00 0.00 21 1011.0
20260904185306 93 150 2.0 6.0 0.00 0.00 0.00 22 1011.1
20260904184302 92 58 2.0 5.0 0.00 0.00 0.00 22 1011.2
20260904183802 92 88 2.0 5.0 0.00 0.00 0.00 23 1011.2
20260904183302 91 111 2.0 7.0 0.00 0.00 0.00 23 1011.4
20260904182306 91 65 2.0 4.0 0.00 0.00 0.00 24 1011.3
20260904181800 91 55 2.0 5.0 0.00 0.00 0.00 24 1011.3
20260904181254 91 6 2.0 5.0 0.00 0.00 0.00 26 1011.3
20260904180748 91 158 1.0 4.0 0.00 0.00 0.00 26 1011.4
20260904180240 91 150 1.0 4.0 0.00 0.00 0.00 26 1011.3
20260904175735 90 57 2.0 6.0 0.00 0.00 0.00 27 1011.4
20260904175233 90 214 2.0 6.0 0.00 0.00 0.00 27 1011.3
20260904174733 89 41 2.0 6.0 0.00 0.00 0.00 27 1011.3
20260904174232 89 94 3.0 6.0 0.00 0.00 0.00 28 1011.3
20260904173735 89 78 2.0 6.0 0.00 0.00 0.00 28 1011.4
20260904173234 89 14 1.0 4.0 0.00 0.00 0.00 29 1011.4
20260904172736 89 56 1.0 4.0 0.00 0.00 0.00 28 1011.4
20260904172234 89 52 1.0 3.0 0.00 0.00 0.00 28 1011.4
20260904171733 89 101 1.0 4.0 0.00 0.00 0.00 27 1011.5
20260904171233 89 127 1.0 5.0 0.00 0.00 0.00 28 1011.4
20260904170954 89 158 1.0 5.0 0.00 0.00 0.00 28 1011.6
20260904170454 89 66 1.0 4.0 0.00 0.00 0.00 29 1011.5
20260904165729 88 237 2.0 4.0 0.00 0.00 0.00 30 1011.5
20260904165230 88 166 1.0 4.0 0.00 0.00 0.00 29 1011.5
20260904164730 88 180 1.0 4.0 0.00 0.00 0.00 30 1011.4
20260904164229 88 103 1.0 3.0 0.00 0.00 0.00 31 1011.5
20260904163730 87 191 1.0 4.0 0.00 0.00 0.00 31 1011.4
20260904163229 87 194 1.0 4.0 0.00 0.00 0.00 31 1011.3
20260904162731 87 233 1.0 3.0 0.00 0.00 0.00 31 1011.3
20260904162229 86 170 1.0 5.0 0.00 0.00 0.00 32 1011.3
20260904161730 87 173 1.0 5.0 0.00 0.00 0.00 31 1011.2
20260904161230 87 184 1.0 3.0 0.00 0.00 0.00 32 1011.2
20260904160730 86 164 0.0 2.0 0.00 0.00 0.00 34 1011.0
20260904160232 85 120 1.0 3.0 0.00 0.00 0.00 34 1011.1
20260904155730 85 107 1.0 3.0 0.00 0.00 0.00 33 1011.0
20260904155451 85 108 1.0 3.0 0.00 0.00 0.00 35 1010.8
20260904154730 84 205 0.0 3.0 0.00 0.00 0.00 35 1010.9
20260904154229 84 186 0.0 2.0 0.00 0.00 0.00 35 1010.8
20260904153730 83 104 0.0 2.0 0.00 0.00 0.00 37 1010.9
20260904153231 82 72 0.0 2.0 0.00 0.00 0.00 37 1010.9
20260904152730 82 93 0.0 1.0 0.00 0.00 0.00 38 1010.8
20260904152229 81 115 0.0 2.0 0.00 0.00 0.00 40 1010.8
20260904151729 80 150 0.0 2.0 0.00 0.00 0.00 40 1010.9
20260904151229 80 180 0.0 2.0 0.00 0.00 0.00 42 1010.7
20260904150731 79 176 0.0 2.0 0.00 0.00 0.00 43 1010.8
20260904150458 78 102 0.0 1.0 0.00 0.00 0.00 45 1010.7
20260904145952 78 69 0.0 1.0 0.00 0.00 0.00 48 1010.5
20260904145501 77 69 0.0 1.0 0.00 0.00 0.00 49 1010.5
20260904144952 75 69 0.0 2.0 0.00 0.00 0.00 52 1010.4
20260904144229 74 60 0.0 2.0 0.00 0.00 0.00 56 1010.3
20260904143729 73 248 0.0 1.0 0.00 0.00 0.00 55 1010.4
20260904143229 73 248 0.0 1.0 0.00 0.00 0.00 56 1010.2
20260904142729 73 248 0.0 1.0 0.00 0.00 0.00 56 1010.1
20260904142229 72 248 0.0 1.0 0.00 0.00 0.00 55 1010.2
20260904141730 72 247 0.0 1.0 0.00 0.00 0.00 56 1010.1
20260904141229 73 247 0.0 1.0 0.00 0.00 0.00 54 1009.9
20260904140958 72 248 0.0 1.0 0.00 0.00 0.00 55 1009.8
20260904140230 72 248 0.0 0.0 0.00 0.00 0.00 54 1009.7
20260904135458 70 248 0.0 1.0 0.00 0.00 0.00 54 1009.6
20260904134954 70 218 0.0 0.0 0.00 0.00 0.00 55 1009.5
20260904134229 69 218 0.0 0.0 0.00 0.00 0.00 55 1009.5
20260904133730 69 218 0.0 1.0 0.00 0.00 0.00 56 1009.5
20260904133229 69 218 0.0 1.0 0.00 0.00 0.00 57 1009.3
20260904132730 69 218 0.0 0.0 0.00 0.00 0.00 55 1009.3
20260904132229 70 218 0.0 2.0 0.00 0.00 0.00 55 1009.3
20260904132001 71 218 0.0 2.0 0.00 0.00 0.00 53 1009.1
20260904131228 71 165 0.0 1.0 0.00 0.00 0.00 53 1009.1
20260904131002 71 165 0.0 1.0 0.00 0.00 0.00 53 1009.0
20260904130230 71 174 0.0 0.0 0.00 0.00 0.00 53 1009.0
20260904125734 70 174 0.0 0.0 0.00 0.00 0.00 54 1008.9
20260904125229 70 174 0.0 0.0 0.00 0.00 0.00 54 1008.9
20260904124729 70 174 0.0 0.0 0.00 0.00 0.00 54 1008.9
20260904124230 71 174 0.0 0.0 0.00 0.00 0.00 53 1008.8
20260904123729 71 174 0.0 0.0 0.00 0.00 0.00 53 1008.8
20260904123230 71 174 0.0 0.0 0.00 0.00 0.00 52 1008.7
20260904122730 72 174 0.0 1.0 0.00 0.00 0.00 51 1008.7
20260904122229 73 174 0.0 1.0 0.00 0.00 0.00 49 1008.7
20260904121729 73 151 0.0 0.0 0.00 0.00 0.00 49 1008.7
20260904121443 74 149 0.0 2.0 0.00 0.00 0.00 46 1008.7
20260904120716 73 149 0.0 2.0 0.00 0.00 0.00 47 1008.7
20260904120210 73 162 0.0 2.0 0.00 0.00 0.00 48 1008.7
20260904115703 73 182 0.0 1.0 0.00 0.00 0.00 48 1008.7
20260904115202 73 244 0.0 3.0 0.00 0.00 0.00 48 1008.8
20260904114702 73 121 1.0 3.0 0.00 0.00 0.00 48 1008.8
20260904114201 73 201 0.0 2.0 0.00 0.00 0.00 49 1008.7
20260904113702 73 176 0.0 1.0 0.00 0.00 0.00 48 1008.7
20260904113202 73 166 0.0 1.0 0.00 0.00 0.00 48 1008.6
20260904112702 73 155 0.0 1.0 0.00 0.00 0.00 48 1008.7
20260904112203 73 155 0.0 2.0 0.00 0.00 0.00 49 1008.7
20260904111926 73 219 0.0 2.0 0.00 0.00 0.00 50 1008.8
20260904111428 73 238 0.0 2.0 0.00 0.00 0.00 51 1008.8
20260904110926 73 162 0.0 2.0 0.00 0.00 0.00 51 1008.7
20260904110426 73 221 0.0 2.0 0.00 0.00 0.00 51 1008.6
20260904105701 73 199 0.0 2.0 0.00 0.00 0.00 50 1008.5
20260904105201 73 227 0.0 2.0 0.00 0.00 0.00 50 1008.5
20260904104701 73 187 0.0 1.0 0.00 0.00 0.00 50 1008.6
20260904104202 73 157 0.0 0.0 0.00 0.00 0.00 50 1008.4
20260904103702 73 157 0.0 0.0 0.00 0.00 0.00 50 1008.4
20260904103201 73 160 0.0 0.0 0.00 0.00 0.00 50 1008.4
20260904102701 73 158 0.0 0.0 0.00 0.00 0.00 50 1008.4
20260904102201 73 158 0.0 0.0 0.00 0.00 0.00 49 1008.3
20260904101701 73 158 0.0 0.0 0.00 0.00 0.00 50 1008.2
20260904101204 73 158 0.0 0.0 0.00 0.00 0.00 49 1008.1
20260904100702 74 158 0.0 0.0 0.00 0.00 0.00 49 1008.2
20260904100203 74 154 0.0 1.0 0.00 0.00 0.00 49 1008.1
20260904095702 74 154 0.0 1.0 0.00 0.00 0.00 49 1008.1
20260904095204 74 176 0.0 1.0 0.00 0.00 0.00 49 1008.2
20260904094927 74 176 0.0 1.0 0.00 0.00 0.00 49 1008.2
20260904094427 74 179 0.0 0.0 0.00 0.00 0.00 49 1008.1
20260904093701 74 178 0.0 2.0 0.00 0.00 0.00 49 1008.1
20260904093201 74 178 0.0 2.0 0.00 0.00 0.00 49 1008.2
20260904092700 74 160 0.0 0.0 0.00 0.00 0.00 48 1008.3
20260904092424 75 160 0.0 0.0 0.00 0.00 0.00 47 1008.1
20260904091700 75 160 0.0 2.0 0.00 0.00 0.00 47 1008.1
20260904091201 75 173 1.0 2.0 0.00 0.00 0.00 46 1008.2
20260904090701 75 172 0.0 1.0 0.00 0.00 0.00 46 1008.2
20260904090157 75 147 0.0 1.0 0.00 0.00 0.00 46 1008.2
20260904085651 76 150 0.0 2.0 0.00 0.00 0.00 45 1008.2
20260904085146 76 164 0.0 2.0 0.00 0.00 0.00 45 1008.3
20260904084640 76 226 0.0 2.0 0.00 0.00 0.00 45 1008.3
20260904084134 76 208 0.0 2.0 0.00 0.00 0.00 45 1008.5
20260904083635 76 175 0.0 1.0 0.00 0.00 0.00 45 1008.5
20260904083132 76 200 0.0 1.0 0.00 0.00 0.00 45 1008.6
20260904082632 76 121 0.0 2.0 0.00 0.00 0.00 45 1008.6
20260904082132 76 163 1.0 2.0 0.00 0.00 0.00 45 1008.6
20260904081633 76 172 1.0 3.0 0.00 0.00 0.00 45 1008.7
20260904081402 76 177 1.0 3.0 0.00 0.00 0.00 45 1008.7
20260904080632 76 182 1.0 3.0 0.00 0.00 0.00 45 1008.8